This is the latest recevied weather packets stored in our database for station/object KF5JED-13. If no packets are shown the sender has not sent any weather packets the latest 10 day(s).
| Time | Temp. | Humidity | Pressure | Rain* | Wind** | Luminosity | Snow |
|---|---|---|---|---|---|---|---|
| 1777644321 | 9.44° C | 70% | 1019.2 hPa | 0 mm | - | 143 W/m² | - |
| 1777643714 | 9.44° C | 71% | 1019 hPa | 0 mm | - | 108 W/m² | - |
| 1777643412 | 9.44° C | 72% | 1019 hPa | 0 mm | - | 106 W/m² | - |
| 1777642805 | 8.89° C | 72% | 1018.6 hPa | 0 mm | - | 72 W/m² | - |
| 1777642502 | 8.89° C | 72% | 1018.8 hPa | 0 mm | - | 53 W/m² | - |
| 1777642198 | 8.89° C | 72% | 1018.8 hPa | 0 mm | - | 36 W/m² | - |
| 1777641895 | 8.89° C | 73% | 1018.7 hPa | 0 mm | - | 30 W/m² | - |
| 1777641590 | 8.89° C | 73% | 1018.5 hPa | 0 mm | - | 28 W/m² | - |
| 1777640077 | 8.89° C | 74% | 1018.4 hPa | 0 mm | - | 13 W/m² | - |
| 1777638864 | 8.89° C | 75% | 1017.9 hPa | 0 mm | - | 8 W/m² | - |
| 1777638559 | 8.89° C | 75% | 1018 hPa | 0 mm | - | 1 W/m² | - |
| 1777638256 | 8.89° C | 75% | 1018 hPa | 0 mm | - | 4 W/m² | - |
| 1777637952 | 8.89° C | 74% | 1018 hPa | 0 mm | - | 3 W/m² | - |
| 1777637346 | 8.89° C | 75% | 1018.2 hPa | 0 mm | - | 1 W/m² | - |
| 1777637043 | 8.89° C | 75% | 1018 hPa | 0 mm | - | 1 W/m² | - |
| 1777636738 | 8.89° C | 75% | 1018.2 hPa | 0 mm | - | 0 W/m² | - |
| 1777635522 | 8.89° C | 74% | 1017.7 hPa | 0 mm | - | 0 W/m² | - |
| 1777635219 | 8.89° C | 74% | 1017.9 hPa | 0 mm | - | 0 W/m² | - |
| 1777634916 | 8.89° C | 74% | 1017.7 hPa | 0 mm | - | 0 W/m² | - |
| 1777634612 | 8.89° C | 74% | 1017.7 hPa | 0 mm | - | 0 W/m² | - |
| 1777634310 | 8.89° C | 74% | 1017.7 hPa | 0 mm | - | 0 W/m² | - |
| 1777634000 | 8.89° C | 74% | 1017.6 hPa | 0 mm | - | 0 W/m² | - |
| 1777633697 | 8.89° C | 73% | 1017.7 hPa | 0 mm | - | 0 W/m² | - |
| 1777633396 | 8.89° C | 73% | 1017.5 hPa | 0 mm | - | 0 W/m² | - |
| 1777633093 | 8.89° C | 72% | 1017.6 hPa | 0 mm | - | 0 W/m² | - |
* Rain latest hour (hover to see other rain measurements)
** Current wind speed in m/s (hover to see current wind gust speed)